sat.trackr.live / text

‹ back to catalog

KUIPER-00446

NORAD 68944 · 2026-098AB

PAYLOAD ACTIVE UNKNOWN

§ Identity

Operator
Country
US
Launch date
2026-04-30
Launch site
FRGUI
Launch vehicle
Mass (kg)
RCS (m²)

External: N2YO · Heavens-Above · Gunter

§ Orbital elements

Epoch: 2026-09-19T18:26:17.371968Z

Period
97.30 min
Inclination
51.9014°
Eccentricity
0.0000557
Mean motion
14.79930841 rev/d
Perigee alt
629.2 km
Apogee alt
629.9 km
Semi-major
7,007.7 km
B*
-2.4758e-5
RAAN
354.9374°
Arg perigee
221.1569°
Mean anomaly
138.9351°
Rev number
2,155

§ Raw data

KUIPER-004461 68944U 26098AB  26262.76825662 -.00000410  00000+0 -24758-4 0  99922 68944  51.9014 354.9374 0000557 221.1569 138.9351 14.79930841 21550

JSON: /api/v1/satellites/68944 · /tle

For live sub-satellite position, see the globe view (requires WebGL).

§ Visibility from observer

Set your observer location to see the next 7 days of passes ≥ 10°. The values pass through the URL so the page stays shareable.

No JS? Fill the form by hand. The geolocation button needs JavaScript.